Regional Weather Roundup
Issued by NWS

Home | Current Version | Previous Version | Text Only | Print | Product List | Glossary On
Versions: 1 2 3 4 5 6 7 8 9 10 11 12 13 14 15 16 17 18 19 20 21 22 23 24 25 26 27 28 29 30 31 32 33 34 35 36 37 38 39 40 41 42 43 44 45 46 47 48 49 50
920
ASUS42 KTBW 251916
RWRFL
FLORIDA REGIONAL WEATHER ROUNDUP
NATIONAL WEATHER SERVICE TAMPA BAY RUSKIN FL
300 PM EDT WED APR 25 2018

NOTE: "FAIR" INDICATES FEW OR NO CLOUDS BELOW 12,000 FEET WITH NO
SIGNIFICANT WEATHER AND/OR OBSTRUCTIONS TO VISIBILITY.

FLZ001>010-012>015-112-114-115-252000-
PANHANDLE FLORIDA

CITY           SKY/WX    TMP DP  RH WIND       PRES   REMARKS
PENSACOLA      FAIR      78  55  44 VRB3      29.95F
PENSACOLA NAS  FAIR      78  54  43 VRB3      29.95F
MILTON NAS     FAIR      76  57  51 N10       29.95
CRESTVIEW      FAIR      77  52  41 NW10      29.95F
DUKE FIELD     MOSUNNY   77  53  42 N13G18    29.93F
VALPARAISO     MOSUNNY   79  52  39 VRB3      29.93F
MARY ESTHER    MOSUNNY   78  54  42 N9G20     29.92F
TRI COUNTY     FAIR      78  58  49 VRB6      29.93F
PANAMA CITY    FAIR      79  55  43 NW7G17    29.91F
TYNDALL AFB    FAIR      72  60  67 W16       29.93F
APALACHICOLA   FAIR      78  58  49 W8        29.92F

STATION/POSITION SKY/WX   TEMP    WIND        PRES    WAVE   SWELL
                          AIR SEA DIR/SP/G            HT/PER HT/PER
                          (F)     (DEG/KT/KT) (MB)    (FT/S) (FT/S)
30.1N   87.6W              68     260/ 10/ 14 1015.1F   1/ 3
29.2N   88.2W                 73  330/  6/  8 1016.3F   1/ 4
28.8N   86.0W              69 74  290/ 10/ 12 1014.9F   2/ 5   2/ 5
PANAMA CITY BEAC           67 71  250/ 17/ 19 1014.0F
TOWER C                    67     260/ 15/ 16 1014.3F

$$
FLZ011-016>038-118-127-128-134-139-239-252000-
NORTH FLORIDA

CITY           SKY/WX    TMP DP  RH WIND       PRES   REMARKS
MARIANNA       PTSUNNY   78  56  46 N10       29.91F
TALLAHASSEE    FAIR      79  52  38 W13       29.90F
PERRY          PTSUNNY   79  52  39 NW6       29.91F
LIVE OAK       MOSUNNY   79  55  44 VRB7G15   29.90F
CROSS CITY     FAIR      76  56  50 W14G20    29.92F
LAKE CITY      FAIR      77  54  44 W13       29.89F
GAINESVILLE    FAIR      80  54  40 W14G21    29.91F
WILLISTON      SUNNY     81  57  44 W5G14     29.90F
PALATKA        FAIR      77  55  47 W6        29.88F
MAYPORT NAS    FAIR      79  55  43 NW9       29.86F
JACKSONVILLE   FAIR      79  55  43 W7G26     29.85F
JAX NAS        FAIR      79  56  45 W10       29.87F
JAX CECIL      MOSUNNY   79  57  47 W14       29.87F SMOKE
FERNANDINA BEA FAIR      80  54  40 NW10G21   29.84F
ST AUGUSTINE   FAIR      79  56  45 W13G18    29.87F
PALM COAST     PTSUNNY   77  57  50 SW9G16    29.88F

STATION/POSITION SKY/WX   TEMP    WIND        PRES    WAVE   SWELL
                          AIR SEA DIR/SP/G            HT/PER HT/PER
                          (F)     (DEG/KT/KT) (MB)    (FT/S) (FT/S)
SHELL POINT      NOT AVBL
KEATON BEACH               68     240/ 15/ 17 1013.6F
CEDAR KEY                  70     280/ 10/ 14 1013.8F
FERNANDINA                 77 71  260/ 12/ 17 1011.8F
30.7N   81.3W                 69                N/A     2/ 8
MAYPORT                    75 70  280/  9/ 13 1011.3F
31.4N   80.9W              67 66  170/ 12/ 16 1010.1F   3/ 9   3/ 9
ST AUGUSTINE               77 69  270/  7/  9 1012.0F

$$
FLZ040-043>046-052-053-057-058-063-144-252000-
INTERIOR CENTRAL FLORIDA

CITY           SKY/WX    TMP DP  RH WIND       PRES   REMARKS
OCALA          PTSUNNY   78  56  46 W12G17    29.90F
LEESBURG       FAIR      78  58  49 W8        29.91F
SANFORD        FAIR      81  59  47 NW16      29.87F
ORLANDO EXEC   FAIR      82  57  42 W17G23    29.88F
ORLANDO INTL   FAIR      81  56  42 W14G22    29.88F
KISSIMMEE      FAIR      82  58  43 W17       29.89F
WINTER HAVEN   FAIR      80  57  45 W14G23    29.91F
LAKELAND       PTSUNNY   79  54  41 W12G18    29.92F
BARTOW         PTSUNNY   79  55  44 W16       29.91F
SEBRING        FAIR      85  56  36 W8        29.91F
OKEECHOBEE     FAIR      79  57  47 W7        29.91F

$$
FLZ041-047-054-059-064-141-147-252000-
EAST CENTRAL FLORIDA

CITY           SKY/WX    TMP DP  RH WIND       PRES   REMARKS
ORMOND BEACH   MOSUNNY   77  55  47 W12G17    29.88F
DAYTONA BEACH  FAIR      80  56  43 W17G24    29.88F
DELAND         FAIR      79  55  44 W9        29.88F
NEW SMYRNA BEA MOSUNNY   82  57  42 W17       29.89F
JFK SPACE CTR  FAIR      81  58  44 W14       29.87F
TITUSVILLE     MOSUNNY   82  57  42 W8G17     29.89F
CAPE CANAVERAL FAIR      81  59  47 W9        29.87F
PATRICK AFB    FAIR      82  59  44 W13       29.88F
MELBOURNE      FAIR      83  58  42 W12G20    29.88F
VERO BEACH     FAIR      81  57  43 W13       29.90F
FT PIERCE      FAIR      82  59  45 W13G21    29.90F
STUART         PTSUNNY   82  57  42 W14       29.93F

STATION/POSITION SKY/WX   TEMP    WIND        PRES    WAVE   SWELL
                          AIR SEA DIR/SP/G            HT/PER HT/PER
                          (F)     (DEG/KT/KT) (MB)    (FT/S) (FT/S)
28.5N   80.2W              72 74  170/  6/  8 1012.5F   4/ 9   5/ 9
28.9N   78.5W              74 75  270/ 12/ 16 1012.8F   5/ 9   3/ 9
TRIDENT PIER               78 76  230/ 10/ 13 1013.3F
28.4N   80.5W                 76                N/A     2/ 9
27.5N   80.2W                 76                N/A     3/ 9   2/11

$$
FLZ050-056-061-142-242-148-248-149-249-151-251-155-255-
160-260-252000-
WEST CENTRAL FLORIDA

CITY           SKY/WX    TMP DP  RH WIND       PRES   REMARKS
CRYSTAL RIVER  FAIR      73  59  60 W15G22    29.93F
INVERNESS      FAIR      77  59  53 SW5       29.92F
BROOKSVILLE    FAIR      75  57  53 W15G22    29.94F
CLEARWATER AIR FAIR      72  57  60 W10       29.95F
ST PETE CLEARW FAIR      80  56  43 NW14      29.94F
TAMPA INTL     FAIR      77  54  44 W14G21    29.94F
TAMPA EXEC     FAIR      79  55  44 NW9G16    29.93F
PLANT CITY     FAIR      82  54  36 W18       29.94F
MACDILL AFB    FAIR      78  56  46 NW12      29.94F
PETER O KNIGHT FAIR      77  55  47 W9        29.94F
ST PETERSBURG  FAIR      77  56  48 W16       29.92F
SARASOTA       FAIR      79  58  48 W14       29.94F
VENICE         PTSUNNY   77  64  65 W12       29.97S

STATION/POSITION SKY/WX   TEMP    WIND        PRES    WAVE   SWELL
                          AIR SEA DIR/SP/G            HT/PER HT/PER
                          (F)     (DEG/KT/KT) (MB)    (FT/S) (FT/S)
27.3N   84.2W                 74                N/A     2/ 5
CLEARWATER BEACH           70 77  300/ 10/ 13 1014.6F
MIDDLE TAMPA BAY           71     290/ 12/ 15 1014.3F
VENICE                     72 78  310/ 10/ 11 1014.6F

$$
FLZ066-069-070-075>078-162-262-165-265-252000-
SOUTHWEST FLORIDA AND KEYS

CITY           SKY/WX    TMP DP  RH WIND       PRES   REMARKS
PUNTA GORDA    FAIR      83  56  39 W13G22    29.94F
FT MYERS       FAIR      83  55  38 W16       29.93F
SOUTHWEST INTL FAIR      80  57  45 W14G21    29.94F
NAPLES         FAIR      78  65  63 W13G18    29.95F
MARCO ISLAND   FAIR      80  63  55 W13G20    29.96F
IMMOKALEE      FAIR      84  57  39 W8G15     29.93F
MARATHON       PTSUNNY   82  65  56 N7        29.96F
KEY WEST NAS   PTSUNNY   82  66  58 N8        29.96F
KEY WEST INTL  CLOUDY    83  69  62 N8        29.97F

STATION/POSITION SKY/WX   TEMP    WIND        PRES    WAVE   SWELL
                          AIR SEA DIR/SP/G            HT/PER HT/PER
                          (F)     (DEG/KT/KT) (MB)    (FT/S) (FT/S)
NAPLES                     74 82              1014.3F
26.0N   85.6W              75 80  340/  6/ 10 1015.0
DRY TORTUGAS               76     330/  4/  5 1015.1F
SAND KEY                   76                 1014.8F
SOMBRERO KEY               76     290/  5/  6 1014.1F
LONG KEY                   77 84  320/  4/  5 1014.2F
MOLASSES REEF              76 78  200/  6/  7 1014.3F

$$
FLZ067-068-071>074-168-172>174-252000-
SOUTHEAST FLORIDA

CITY           SKY/WX    TMP DP  RH WIND       PRES   REMARKS
W PALM BEACH   FAIR      80  61  52 NW12      29.92F
FT LAUDER-EXEC FAIR      84  59  42 MISG      29.92F
FT LAUDERDALE  FAIR      79  64  60 E12       29.91F
POMPANO BEACH  FAIR      82  59  45 NE5       29.92F
PEMBROKE PINES FAIR      86  60  41 W5        29.93F
OPA LOCKA      FAIR      86  61  42 NW9       29.92F
MIAMI          FAIR      84  63  49 VRB3      29.92F
WEST KENDALL   PTSUNNY   88  61  40 W10G17    29.91F
HOMESTEAD      PTSUNNY   81  66  59 SE10      29.92F

STATION/POSITION SKY/WX   TEMP    WIND        PRES    WAVE   SWELL
                          AIR SEA DIR/SP/G            HT/PER HT/PER
                          (F)     (DEG/KT/KT) (MB)    (FT/S) (FT/S)
PORT EVERGLADES            78     130/  5/  9 1013.4
VIRGINIA KEY               77 82  100/  8/ 10 1012.8F
LAKE WORTH                 78 79  320/  8/ 11 1014.3F
FOWEY ROCKS                76 81  150/



USA.gov is the U.S. government's official web portal to all federal, state and local government web resources and services.